Wind_Speed
11 12 13 14 15 15 15 15 16 16 16 17 18 20 21 22 19 11 7 6 4 5 6 6 6 3 2 3 4 4 5 7 8 9 7 2 1 0 2 1 1 1 2 2 3 5 7 8 10 9 7 7 7 9 9 5 3 3 2 3 2 3 3 3 3 3 4 4 6 9 6 8 6 7 9 9 11 16 16 14 13 13 13 17 23 27 24 23
10 11 12 14 14 15 15 16 16 16 17 18 18 20 22 24 21 13 8 6 4 4 4 6 6 5 4 4 6 6 7 8 10 10 5 2 2 2 1 1 1 2 2 3 2 4 7 8 9 3 7 8 9 12 9 4 3 2 2 2 2 4 3 3 2 2 4 6 6 4 4 8 8 8 8 5 6 13 14 13 17 19 20 23 25 25 23 23
10 11 11 13 14 14 15 16 16 17 18 18 19 21 22 24 23 16 10 7 4 3 3 4 5 7 7 7 8 8 8 10 12 9 4 3 2 2 1 1 2 4 2 2 2 3 7 7 9 3 10 10 7 10 7 3 3 1 3 2 4 4 3 4 2 4 9 11 8 5 5 8 7 7 8 7 6 7 9 10 15 20 23 25 24 23 23 21
9 10 11 12 13 14 15 15 16 17 18 19 19 21 22 24 24 18 13 9 6 3 0 2 5 8 9 9 8 8 9 10 10 7 5 6 2 2 2 2 3 3 1 1 1 4 7 5 6 3 7 6 3 6 5 2 2 1 3 3 4 5 2 4 5 8 13 13 11 9 7 6 5 7 11 12 7 2 6 12 18 23 26 26 24 21 19 18
9 9 10 11 12 13 14 15 16 16 17 18 19 20 22 23 24 20 14 11 7 5 3 2 4 7 8 9 8 9 7 4 5 4 5 6 2 1 2 3 3 2 1 1 2 4 5 3 1 4 6 3 2 2 2 3 3 1 3 4 5 7 2 3 9 10 12 11 11 10 6 6 6 7 12 12 5 3 7 14 21 27 27 25 22 18 16 17
9 9 10 11 11 12 13 14 15 16 16 18 19 20 21 22 23 20 16 13 8 5 2 3 4 6 7 8 9 9 4 1 5 4 4 5 2 2 3 3 2 2 2 3 2 5 8 7 7 6 4 2 2 1 2 5 5 1 4 3 8 9 4 7 11 10 11 11 10 7 5 8 7 6 8 7 4 6 10 16 23 25 24 22 20 18 17 18
10 9 10 11 11 12 12 13 15 15 16 17 18 19 20 21 22 21 16 13 10 6 2 1 4 5 6 7 7 7 7 10 10 6 6 5 2 1 3 3 2 1 2 3 3 7 9 9 10 7 5 3 1 1 2 4 5 2 2 2 8 8 7 10 10 10 11 11 11 8 7 8 8 6 6 7 7 8 12 17 22 21 20 18 18 18 17 17
12 10 10 11 12 12 12 13 14 15 15 16 18 18 19 20 20 20 17 13 11 7 4 2 2 4 5 5 5 5 9 12 8 8 11 7 3 2 3 2 1 2 3 2 4 7 9 9 9 6 4 3 1 1 2 1 1 2 2 1 6 7 6 8 9 11 11 10 10 6 7 7 9 10 8 9 10 11 15 18 20 19 18 17 17 17 16 15
13 12 10 10 12 12 12 12 13 14 14 15 16 17 18 19 20 20 18 14 11 7 5 5 4 5 4 5 4 4 8 6 4 8 10 8 4 4 3 3 3 4 5 2 4 5 7 8 7 5 4 3 3 2 3 3 0 1 3 5 3 7 7 8 9 12 11 8 7 3 5 9 13 13 7 8 12 14 16 18 19 18 17 15 15 15 15 15
14 14 12 11 11 12 13 13 12 13 14 14 15 16 17 18 19 19 18 16 12 8 5 5 6 5 5 5 3 1 4 2 5 6 6 5 6 5 3 3 4 4 4 2 7 6 5 7 8 8 6 4 4 2 1 2 1 1 5 7 4 5 8 10 9 10 10 7 8 6 6 10 12 7 3 8 15 16 18 19 18 18 17 17 15 15 15 15
14 14 14 13 12 12 13 13 12 12 12 14 14 15 16 17 18 18 18 17 14 11 7 6 6 7 7 6 6 3 2 4 5 4 5 6 8 6 2 3 3 1 2 6 10 6 4 6 7 7 5 4 2 1 1 1 1 4 5 6 7 4 7 8 7 9 7 5 10 11 9 9 8 3 6 14 17 18 20 21 19 18 19 19 18 17 17 16
15 14 14 14 13 12 12 13 13 12 11 13 13 14 15 16 17 18 18 18 16 13 10 7 6 7 8 10 10 5 2 5 5 5 6 6 6 5 4 4 4 4 6 9 9 3 1 4 5 4 4 5 2 0 1 1 2 6 6 4 5 5 2 7 7 8 7 5 13 15 9 4 3 5 13 18 20 20 21 21 20 20 20 21 20 19 19 18
16 15 15 14 14 13 12 13 14 13 11 11 13 14 15 16 17 18 17 17 17 14 13 10 6 7 8 10 8 2 4 5 4 4 5 4 5 7 6 4 3 8 10 9 8 5 4 2 3 5 5 5 2 2 3 2 3 4 5 4 2 5 2 8 10 8 6 7 17 15 6 3 3 9 18 21 23 21 21 23 22 22 22 22 20 19 20 20
18 17 16 15 14 14 13 13 13 14 13 11 11 13 15 15 17 18 17 17 17 13 12 11 7 6 7 9 2 5 7 5 8 8 6 6 6 8 8 6 5 9 11 8 7 7 7 5 4 4 4 3 1 3 3 4 3 2 3 3 2 2 2 8 11 10 6 10 20 10 3 5 4 10 21 24 25 22 23 25 24 24 24 23 22 21 21 21
19 18 17 16 15 14 14 13 14 14 14 13 11 12 15 15 16 18 17 17 16 12 11 10 7 6 9 10 3 8 8 10 14 12 8 8 9 9 9 9 10 13 12 8 5 5 8 8 6 4 3 2 1 2 3 3 2 3 2 3 0 2 3 5 10 14 9 11 20 7 4 5 3 11 24 26 26 23 23 24 25 26 26 26 25 23 22 21
20 20 19 17 16 15 14 14 14 14 14 14 11 12 14 15 17 19 19 19 17 12 9 7 5 5 7 8 3 9 12 16 15 11 10 11 11 12 11 9 11 16 18 14 7 6 9 7 5 3 2 2 3 3 4 3 2 2 2 2 2 3 3 2 7 18 14 9 11 5 4 4 3 12 24 26 27 24 20 22 25 27 27 28 26 24 24 23
20 20 20 19 17 15 14 14 14 14 14 14 13 12 13 15 18 20 20 19 17 12 9 7 7 7 7 6 5 9 15 17 14 13 13 12 12 12 12 14 12 14 18 17 12 10 10 6 3 2 1 3 3 4 4 2 2 2 1 1 2 3 3 2 5 14 13 8 4 3 6 6 5 12 21 24 27 24 19 19 24 27 27 28 27 24 25 25
20 20 20 19 18 16 15 14 14 14 14 13 13 12 13 16 18 20 21 19 15 10 7 6 4 3 6 9 7 8 12 14 15 17 15 10 12 11 12 16 14 13 13 14 12 11 9 3 3 0 2 2 1 4 3 2 4 3 3 2 1 1 1 3 4 6 8 8 6 5 5 7 7 10 18 23 25 22 20 19 23 26 24 24 24 24 25 26
19 20 20 20 19 17 15 14 14 15 14 12 12 14 15 16 17 16 14 13 10 7 6 6 6 3 7 11 9 12 11 10 13 18 18 12 10 12 12 12 12 12 10 8 9 13 9 1 3 1 2 2 4 6 6 7 5 5 5 4 3 2 2 3 4 4 8 8 6 7 6 7 7 8 14 21 24 22 21 20 21 22 19 18 18 17 22 25
20 20 20 21 20 18 16 14 14 15 14 11 12 14 13 10 8 6 8 12 13 10 10 14 15 16 19 21 19 16 13 9 15 18 18 15 12 14 15 13 10 9 6 5 6 12 11 3 1 5 6 8 8 10 10 7 4 3 3 4 4 3 3 5 4 5 10 8 5 8 8 8 9 8 11 20 23 18 18 18 19 17 16 18 16 13 19 23
21 21 21 21 21 19 16 14 14 14 13 12 12 13 11 5 3 6 13 17 16 13 17 22 21 23 26 28 25 20 13 10 18 20 15 17 16 12 12 13 7 4 6 6 3 8 10 5 7 12 12 10 9 10 10 7 5 4 3 3 4 2 4 5 4 5 7 6 4 7 7 8 10 9 10 17 17 14 18 18 17 18 18 21 19 17 19 20
22 22 22 22 22 20 17 14 12 12 12 13 13 13 11 9 13 17 17 16 18 20 21 23 23 25 29 28 27 25 19 14 17 23 18 17 19 12 8 8 5 4 6 4 4 4 4 5 12 16 13 9 6 6 8 8 6 5 3 3 4 4 4 3 1 5 5 4 5 7 7 8 10 7 8 15 16 17 25 25 22 23 23 25 24 22 22 20
24 24 23 23 23 21 18 13 9 9 11 12 12 11 12 16 19 19 16 13 18 23 21 20 22 25 28 27 27 23 21 19 18 23 20 17 20 17 11 6 6 6 5 3 5 4 3 9 16 14 11 9 7 7 7 6 5 5 4 4 3 5 4 1 2 4 3 3 7 7 4 4 6 3 4 14 19 20 25 27 27 28 28 30 28 25 23 20
26 25 24 24 24 22 18 12 6 7 10 10 7 10 12 16 14 9 11 8 9 18 22 21 20 24 27 25 23 20 21 22 19 20 20 19 19 16 12 9 6 5 6 10 10 8 7 13 13 11 12 13 9 7 7 4 3 4 6 5 5 5 4 3 3 2 2 3 7 6 3 3 4 3 3 8 13 15 19 21 22 25 29 31 29 25 23 20
28 27 26 24 24 23 19 9 5 7 8 4 6 9 9 11 9 3 7 4 3 11 17 14 13 20 25 22 21 20 18 17 17 17 19 23 21 12 7 9 7 3 7 14 11 8 10 10 7 13 14 14 10 6 7 7 3 2 6 8 8 7 4 2 4 4 5 2 4 6 4 3 5 3 5 4 5 8 13 16 17 22 27 29 29 26 22 19
30 29 27 25 24 24 19 8 5 7 6 3 7 9 6 9 8 1 2 3 3 6 5 4 6 9 14 15 16 14 9 8 13 17 19 23 24 14 5 3 3 4 6 7 4 3 7 4 7 13 13 11 10 5 5 9 4 1 7 10 9 9 7 6 5 5 3 2 3 4 5 2 4 4 6 3 6 6 9 11 14 21 25 27 28 25 21 19
30 29 27 25 22 24 22 14 11 11 7 6 8 7 6 11 8 1 1 4 4 4 2 4 5 4 6 9 13 11 2 5 10 14 21 22 19 15 8 4 1 6 5 2 2 2 4 3 6 9 10 7 6 4 5 8 6 3 9 13 11 9 7 6 6 4 3 2 2 3 5 3 2 5 5 3 8 7 6 7 10 18 22 25 27 25 22 20
26 26 27 24 20 22 23 20 17 11 7 8 9 6 6 11 6 1 4 3 4 3 0 4 5 4 5 9 15 11 2 6 7 12 25 22 13 9 5 5 4 7 5 4 1 6 2 0 4 8 7 4 4 6 7 9 5 3 9 12 10 8 5 4 6 4 1 4 2 5 3 5 3 5 4 3 8 7 7 7 9 14 20 24 27 25 22 20
24 24 25 23 20 20 21 20 17 10 7 9 8 7 8 9 4 4 6 1 4 2 1 3 4 5 6 8 12 11 4 7 6 12 22 17 14 10 4 7 6 5 4 4 4 6 3 5 6 9 6 6 7 8 7 9 4 6 11 10 6 6 6 5 5 3 3 4 3 6 2 5 3 5 2 2 6 7 7 6 9 15 22 27 29 27 23 21
25 23 23 23 20 18 20 17 11 7 7 9 9 8 8 6 5 6 2 3 3 4 2 2 3 4 5 3 4 8 6 7 7 11 14 11 12 12 7 7 4 2 3 2 1 6 5 3 4 6 5 6 6 5 3 7 8 10 9 6 5 6 5 4 3 4 4 2 5 5 2 5 0 5 3 3 5 8 7 6 7 12 20 27 29 27 25 23
26 24 22 22 20 19 19 10 2 3 5 7 9 7 5 3 4 5 3 4 2 4 2 1 4 3 4 4 3 5 3 5 7 6 8 6 5 5 3 4 2 4 4 5 4 5 5 3 2 2 5 5 2 3 2 6 6 6 6 5 5 4 4 4 4 4 4 2 6 5 3 6 3 4 5 5 5 7 9 8 8 11 18 26 28 28 27 25
27 25 22 21 19 20 17 7 1 2 3 4 6 4 3 3 2 2 4 3 2 3 1 2 4 2 1 3 4 5 3 3 5 5 5 4 2 3 2 3 2 3 4 3 2 5 3 3 4 2 2 4 5 2 4 5 5 5 6 6 5 2 3 3 2 2 2 4 6 5 5 3 2 5 6 5 4 7 10 13 16 18 22 26 28 28 27 26
28 27 22 18 19 21 16 8 5 3 2 3 1 3 5 4 2 5 4 3 3 3 3 5 4 2 1 2 3 4 4 3 5 6 4 4 4 4 4 6 6 5 2 3 1 3 3 6 5 3 3 1 6 3 2 1 2 6 6 5 4 3 2 0 2 1 1 5 5 3 4 0 2 4 4 7 8 12 16 20 25 26 27 29 29 28 26 26
29 28 22 17 19 20 13 7 5 5 5 5 5 5 5 3 4 4 3 4 4 5 5 5 5 3 0 2 4 4 3 3 4 5 3 2 2 4 4 5 5 5 2 2 1 1 2 4 4 1 2 2 4 4 6 4 3 5 5 5 5 4 4 3 3 2 3 3 1 2 2 2 2 3 5 10 13 17 21 22 24 26 28 30 28 26 27 27
31 27 21 17 17 16 11 6 6 8 9 8 6 4 4 4 4 2 4 5 3 5 6 4 3 3 3 2 4 4 6 5 3 4 4 4 4 5 3 5 7 6 3 2 2 1 4 3 7 5 3 3 3 4 6 6 2 2 3 5 1 4 6 3 4 5 4 2 1 1 1 2 2 3 3 9 12 14 18 18 19 22 25 27 26 26 27 28
31 24 17 16 15 12 9 8 8 10 13 10 5 1 5 4 3 3 3 3 2 3 4 5 4 3 3 4 4 3 5 6 3 4 4 4 4 6 4 4 7 9 5 4 2 1 3 4 7 2 2 2 6 4 3 5 2 1 1 2 3 3 7 5 1 1 4 4 2 2 1 1 1 2 3 3 8 9 11 13 16 22 27 27 27 28 28 28
31 23 14 12 11 10 13 12 10 11 12 9 4 5 5 4 5 5 4 4 4 5 3 2 2 1 1 3 3 4 3 5 3 3 4 3 4 4 4 3 5 11 8 4 2 3 4 3 7 1 1 5 5 4 5 3 4 4 1 4 1 2 4 5 3 3 4 3 2 1 4 4 3 2 4 2 7 8 7 9 14 20 26 26 27 29 29 29
31 25 12 5 5 13 19 16 12 13 10 5 2 5 3 3 6 8 8 6 7 6 3 1 2 2 1 2 3 4 4 4 3 2 2 3 4 4 3 2 4 9 10 5 2 1 4 1 7 2 3 3 2 7 4 5 3 4 3 3 3 2 1 1 3 2 2 2 2 1 2 4 4 4 6 7 9 9 6 8 11 15 21 24 26 28 29 29
28 22 9 7 3 15 21 17 16 14 7 3 3 3 3 4 7 14 15 9 6 4 3 3 3 1 2 3 3 3 3 3 3 1 2 3 4 3 2 2 2 5 10 8 4 1 3 3 4 5 2 1 5 5 2 4 5 4 3 3 2 3 3 1 1 3 4 3 3 1 1 2 5 5 10 11 11 10 9 8 9 14 22 26 27 28 30 29
22 16 5 9 10 12 17 17 17 12 4 2 4 3 4 4 7 16 19 10 5 5 4 4 2 1 3 3 2 2 2 2 3 2 1 4 3 3 3 1 2 3 5 6 4 2 3 4 1 6 5 2 1 1 6 4 0 3 4 4 3 1 1 1 1 0 4 4 4 3 0 5 6 4 9 13 12 11 12 10 9 14 23 27 30 31 31 30
17 10 1 9 12 8 16 17 11 5 2 2 3 2 4 5 6 12 16 13 10 10 9 7 4 3 4 1 2 3 1 1 2 2 2 3 2 2 4 4 3 3 4 5 3 2 1 3 2 3 4 1 3 4 6 8 6 5 4 2 2 1 2 3 2 3 2 4 3 4 2 6 6 2 7 11 10 9 13 14 11 16 24 28 32 32 29 29
14 4 2 8 11 5 16 12 3 2 3 2 4 4 6 7 7 9 13 15 12 10 10 8 5 4 3 2 3 3 2 1 2 2 2 2 3 3 5 6 5 4 6 3 0 2 3 4 3 1 1 2 4 4 1 5 6 5 3 3 4 3 4 5 2 3 2 3 1 4 3 4 6 2 4 8 10 12 17 19 17 19 26 30 32 30 28 27
14 9 5 5 12 3 8 3 3 1 1 5 6 9 12 9 7 7 9 10 8 6 6 6 5 5 4 4 3 1 2 2 2 3 2 3 4 2 5 2 5 6 5 3 1 1 3 4 3 2 4 4 6 6 4 3 7 6 2 1 3 3 3 5 5 3 2 2 1 4 2 4 6 3 2 9 14 16 18 23 22 20 24 29 31 29 28 27
17 14 8 5 11 5 3 1 2 2 3 5 5 8 12 11 9 9 7 7 7 4 4 5 5 5 2 1 2 2 3 1 2 4 2 2 3 5 15 8 6 6 2 3 3 2 1 1 2 3 4 5 6 6 6 6 4 3 0 2 2 4 5 3 1 3 3 1 3 5 2 6 5 2 4 10 14 14 16 23 27 24 24 27 28 28 28 27
14 9 8 10 10 5 3 3 1 2 3 3 4 6 8 9 10 13 12 12 13 9 5 6 4 6 4 1 3 5 3 3 2 4 1 3 4 6 15 10 2 5 5 8 8 6 4 2 4 5 3 1 1 3 2 2 1 1 0 2 1 5 6 3 2 4 3 0 3 5 4 5 5 2 6 9 10 11 15 22 26 27 28 28 28 28 28 28
9 4 8 13 11 9 8 12 12 6 3 3 4 5 5 4 7 14 15 13 16 16 11 8 6 6 5 4 4 6 2 3 2 2 2 3 4 5 11 11 9 6 9 15 11 7 4 2 3 7 6 6 5 6 6 3 2 1 1 0 1 3 7 6 4 2 3 2 2 2 6 4 3 2 4 8 10 11 12 16 20 23 27 29 28 29 29 28
6 1 4 7 8 9 11 14 16 10 6 5 2 4 5 4 4 9 9 9 13 13 10 7 4 3 3 4 3 6 3 1 1 2 2 2 3 5 8 9 10 11 7 7 5 4 5 2 1 6 5 6 7 7 5 2 5 5 4 3 1 2 6 7 4 3 4 5 2 5 4 6 6 7 5 9 11 10 10 16 22 25 28 30 30 29 28 28
6 1 4 6 4 3 5 9 13 11 10 8 3 3 4 5 4 5 5 7 7 7 5 2 2 2 4 7 5 4 2 2 4 4 2 2 2 4 7 6 6 10 10 5 4 4 6 0 2 2 1 4 3 3 4 3 3 4 6 7 5 5 5 5 5 6 6 6 4 6 6 6 7 7 7 9 11 12 17 24 29 30 30 30 30 29 28 29
7 2 4 9 5 3 5 11 14 11 8 7 3 2 4 4 4 5 5 5 6 8 8 4 6 10 3 4 5 2 1 2 1 4 4 1 3 3 3 3 5 8 9 5 4 4 5 1 3 2 3 6 5 2 2 4 2 2 3 6 7 8 8 7 5 6 6 6 6 6 6 5 6 7 8 9 12 17 22 26 27 28 30 30 30 30 30 30
9 5 7 10 7 6 10 12 11 7 5 6 5 4 6 4 5 6 4 4 4 5 7 5 6 8 7 7 7 4 1 3 6 3 2 1 2 0 1 1 4 6 6 3 2 5 4 2 3 4 5 6 7 5 1 4 4 5 7 5 4 6 5 3 3 4 5 3 3 5 4 4 6 5 6 9 13 15 17 21 24 28 32 32 31 31 31 31
10 7 7 8 5 6 10 11 9 5 3 6 7 7 7 6 7 7 3 7 8 3 5 6 6 5 6 9 9 4 2 3 5 4 2 3 3 4 2 2 2 2 4 1 1 3 4 0 1 5 4 5 6 5 6 3 1 2 7 6 5 7 5 3 3 5 6 6 4 5 3 4 6 3 5 11 14 15 17 22 26 29 32 32 32 32 33 32
13 9 7 3 2 6 9 6 7 6 4 7 9 7 7 9 12 8 2 5 11 11 11 8 4 3 5 8 7 4 7 7 7 9 7 4 9 9 6 6 5 3 1 1 1 1 4 3 0 3 2 5 6 4 5 6 5 4 6 7 8 5 4 3 2 4 7 7 7 5 5 6 5 4 6 7 8 10 17 22 25 28 31 33 33 32 32 32
Wind_Direction
356 5 8 10 10 10 9 8 6 4 6 6 5 1 358 1 2 357 345 333 310 274 256 247 248 253 288 290 252 261 287 287 294 292 278 235 118 121 126 118 144 193 239 246 272 297 307 317 313 297 252 234 220 211 200 184 163 131 94 99 160 197 190 191 190 179 164 166 189 209 187 137 130 118 111 102 92 87 89 94 108 120 124 136 139 135 134 138
349 356 358 1 2 2 4 3 2 0 1 3 5 1 359 2 5 7 360 345 325 298 262 240 234 233 250 255 246 265 279 286 290 275 244 185 163 128 97 85 33 321 300 314 325 320 327 343 337 318 172 184 195 191 185 171 147 133 101 113 212 200 212 209 184 222 170 162 166 174 158 135 133 133 127 110 89 93 88 87 109 117 122 132 137 138 141 147
344 346 349 352 353 354 356 358 359 358 357 359 3 1 360 4 8 11 9 4 354 326 276 244 230 233 238 239 248 260 274 289 285 265 220 198 175 104 54 8 341 332 327 327 0 325 318 332 326 295 157 160 174 176 176 168 165 187 121 126 242 205 219 247 217 193 163 152 146 136 137 140 139 127 122 123 108 100 108 115 117 122 131 137 141 144 147 153
339 337 338 341 343 345 348 352 355 355 354 355 0 1 0 4 9 11 13 18 20 26 2 227 222 226 231 236 242 254 281 298 285 266 226 211 173 78 0 348 353 1 17 287 347 342 331 319 289 244 138 133 132 148 153 158 174 183 140 173 228 175 180 244 203 170 161 153 140 137 136 137 143 129 131 130 109 88 145 142 138 138 142 143 145 149 152 159
335 331 329 329 332 336 340 345 349 352 351 352 357 360 360 3 9 11 13 18 25 42 78 164 208 219 227 235 237 255 287 331 308 283 222 202 162 346 341 3 18 32 15 316 322 10 27 34 159 123 97 71 50 99 128 144 128 84 234 223 170 154 145 194 173 164 166 154 131 130 134 142 139 119 136 140 120 178 168 149 145 143 146 147 149 153 159 164
334 328 322 321 323 326 331 337 343 347 348 349 353 357 359 1 7 10 10 11 13 17 57 156 191 211 220 231 242 261 267 263 299 296 217 197 185 314 14 46 52 37 0 4 27 77 77 82 96 99 90 69 62 85 146 158 144 78 288 230 158 160 149 161 165 156 155 143 131 142 146 137 115 93 137 138 99 148 155 150 148 147 148 148 150 156 164 167
334 328 319 316 315 317 322 329 335 341 345 346 348 352 356 358 4 8 8 8 4 358 357 190 198 210 223 234 251 265 254 258 271 264 232 214 215 297 65 91 73 358 357 36 121 110 82 82 92 91 87 80 83 85 111 167 169 146 289 204 168 173 159 168 167 151 154 145 138 138 131 130 112 106 143 123 107 139 148 147 149 147 146 148 153 159 163 167
334 330 319 312 310 310 313 320 327 334 339 342 344 347 351 355 360 4 6 5 0 352 336 308 236 233 242 243 261 276 270 273 265 238 231 222 224 201 144 140 132 294 318 40 153 124 81 83 95 90 83 74 30 38 56 86 194 177 274 265 172 178 161 169 165 157 168 149 136 129 118 120 112 118 125 114 122 142 145 144 145 144 143 148 155 160 163 165
336 332 323 312 307 305 304 309 318 326 333 336 340 341 345 350 354 359 1 360 357 348 325 315 294 272 266 256 269 293 283 275 201 207 214 213 219 188 191 218 218 267 296 289 189 151 95 96 101 93 113 103 55 45 53 54 336 244 347 18 132 171 156 163 175 171 175 159 148 134 97 108 112 111 102 122 138 141 143 143 144 145 148 153 158 163 167 166
339 334 329 317 305 301 298 300 306 317 325 329 335 337 340 343 346 352 355 354 352 349 328 303 302 286 272 254 223 286 291 191 151 179 185 200 200 185 210 253 259 279 298 221 175 160 102 102 109 95 101 98 62 71 74 69 195 297 22 22 37 159 164 162 180 187 177 173 175 149 104 129 131 109 90 148 148 146 147 148 149 152 157 165 167 168 175 177
344 338 331 323 312 300 294 293 296 305 315 321 328 332 333 336 339 344 349 350 346 346 338 299 291 284 279 260 222 229 254 146 120 136 170 199 192 194 229 228 245 228 155 153 154 155 87 90 111 101 94 102 78 134 252 316 352 6 33 18 20 106 170 168 171 197 182 189 190 153 117 148 147 109 158 157 157 157 155 157 161 164 169 174 175 175 180 185
350 343 335 328 319 305 293 289 287 291 304 312 320 325 327 328 331 335 341 346 341 338 336 320 287 277 284 274 258 253 188 148 112 121 169 211 212 229 228 204 228 192 173 159 151 163 108 86 90 96 123 132 124 165 298 349 36 15 38 27 10 67 169 197 181 193 180 200 186 144 105 170 182 160 168 163 164 165 162 167 172 175 179 180 182 184 185 186
352 348 341 332 324 314 299 287 282 282 289 300 312 317 319 321 323 326 333 339 337 330 328 327 306 288 285 281 278 223 177 171 163 160 176 226 251 253 223 180 187 184 191 184 154 130 125 131 102 101 124 133 109 107 99 61 60 18 36 45 11 31 345 203 192 186 172 203 184 149 101 228 206 171 174 171 172 171 168 174 179 182 186 187 188 189 186 185
353 350 345 337 329 320 306 292 281 276 277 285 301 308 312 316 314 317 324 330 331 325 324 327 325 316 285 283 284 177 201 194 206 214 202 214 231 249 238 209 191 185 194 191 152 125 117 130 147 120 134 161 127 120 93 38 58 64 36 20 59 46 289 195 184 174 167 213 195 159 79 202 198 177 176 176 179 178 175 178 184 189 192 193 191 188 187 188
352 349 347 341 333 324 312 298 283 275 271 272 285 299 304 309 307 309 317 322 322 317 317 322 326 329 298 289 251 178 201 205 215 224 214 221 236 247 245 224 211 205 209 208 174 148 142 145 158 150 155 186 85 84 51 25 31 69 75 323 317 168 253 208 187 183 179 204 194 155 74 203 227 183 178 179 186 186 182 186 189 194 197 197 194 191 193 194
349 348 345 341 336 328 317 303 288 276 267 265 273 286 296 302 301 303 309 313 314 307 309 313 304 317 310 298 238 180 199 213 221 231 227 234 253 256 249 238 220 216 227 230 215 171 163 160 153 154 150 139 108 89 53 34 344 14 105 224 215 170 213 219 199 198 186 173 182 146 113 200 255 191 182 181 191 194 188 192 195 197 200 200 197 195 198 199
346 346 343 340 336 330 321 308 292 277 266 262 264 273 287 293 293 298 305 308 308 300 298 289 278 293 281 267 239 203 209 220 227 230 229 234 251 257 247 239 229 228 234 227 208 178 178 178 133 155 115 95 113 94 63 24 281 301 82 221 219 164 167 162 190 195 174 128 137 119 134 189 218 192 188 185 191 197 198 201 200 199 201 203 200 199 202 202
344 343 342 339 335 331 324 311 295 280 265 256 259 267 275 281 289 300 302 302 301 296 295 271 250 309 270 239 247 248 228 224 223 218 220 231 241 246 241 234 228 225 220 207 196 177 182 194 103 73 6 55 125 107 105 221 207 192 161 148 233 138 132 175 190 191 153 120 134 130 147 205 214 188 192 194 192 196 207 211 204 200 197 196 197 198 200 201
340 341 340 338 334 330 325 314 299 280 264 252 252 261 271 282 295 303 302 296 288 284 301 273 238 254 265 254 271 291 275 236 215 213 216 223 232 236 242 245 239 225 198 182 192 180 174 89 61 298 307 206 197 172 192 211 187 175 161 145 156 172 219 208 216 195 138 120 142 152 167 206 213 195 191 197 197 197 205 213 210 202 191 185 185 189 193 195
335 337 338 338 334 329 326 317 301 279 267 255 245 260 279 294 305 316 321 303 286 285 295 285 270 263 271 279 284 294 295 247 218 217 215 218 229 234 236 243 251 243 204 175 190 182 169 126 201 241 233 213 203 194 204 210 181 140 119 129 132 147 230 218 208 175 135 124 172 178 177 200 211 205 189 193 198 198 199 205 208 200 187 181 173 170 181 186
330 332 335 336 334 330 327 321 304 281 272 265 258 275 286 290 312 331 331 309 292 296 296 291 285 274 277 284 282 281 288 257 228 228 222 216 223 231 230 230 240 262 234 210 159 157 159 165 221 232 233 222 206 195 195 200 187 141 129 128 108 127 240 224 194 174 139 125 192 191 174 202 217 207 187 187 192 199 197 191 189 188 180 174 163 152 162 169
324 326 330 333 333 330 328 326 310 284 276 265 262 279 283 297 313 314 317 299 286 295 294 291 287 279 279 280 279 276 274 266 238 232 230 215 214 217 212 206 200 237 244 204 122 130 156 215 227 225 232 232 214 204 192 190 187 164 168 134 127 185 228 278 244 169 146 121 181 196 178 205 227 211 180 183 186 194 194 179 166 166 161 160 158 152 154 158
318 320 325 329 331 330 329 329 308 277 267 258 266 295 310 321 321 308 297 278 284 294 287 281 279 276 277 273 273 272 257 252 239 228 225 213 210 210 203 191 199 229 252 201 170 161 177 237 234 221 221 230 227 225 205 186 182 165 163 136 163 202 173 176 231 162 151 136 161 176 177 226 247 228 181 186 180 180 184 171 157 159 158 159 162 160 161 159
314 316 319 323 328 329 330 328 292 257 261 261 296 328 332 337 341 314 285 274 284 291 287 282 275 270 268 264 270 265 243 238 232 221 214 210 212 210 207 210 209 217 236 235 214 184 217 244 227 190 197 219 215 214 206 186 207 181 167 165 180 205 184 172 180 135 40 71 137 125 71 297 263 205 214 204 178 169 175 165 154 161 161 162 165 165 167 166
308 309 312 317 323 327 331 322 254 259 276 284 337 332 339 358 12 333 288 310 291 284 292 285 261 258 256 257 264 250 229 225 225 229 220 209 213 214 214 213 210 230 232 232 219 196 242 255 180 160 187 208 202 204 198 183 209 199 173 179 173 176 178 146 127 97 42 42 157 119 90 283 281 229 222 215 155 156 170 165 157 161 161 163 167 168 169 170
304 303 305 310 318 324 330 318 267 303 316 313 331 327 356 27 38 41 287 14 321 273 287 249 214 238 244 248 243 217 208 220 223 239 226 210 217 224 242 231 204 255 245 227 207 187 252 271 127 157 182 195 199 222 209 173 157 166 173 167 161 160 155 163 154 114 95 197 202 122 123 217 287 259 239 177 130 154 169 166 163 162 163 167 170 170 171 171
304 301 300 302 311 319 324 318 307 328 339 312 319 325 5 31 39 14 13 26 309 258 205 201 188 194 228 227 204 177 158 213 204 221 207 202 218 218 230 284 293 264 272 51 12 272 261 342 77 148 177 183 185 235 230 164 129 172 169 148 150 158 155 169 152 121 164 171 0 20 111 117 245 242 264 132 135 159 161 161 171 166 166 171 172 173 175 175
311 303 298 294 301 309 313 311 308 321 332 314 316 313 357 25 34 96 87 52 278 260 200 213 201 216 225 199 192 188 163 162 166 208 201 200 217 200 205 248 236 264 273 92 249 273 267 276 97 128 161 184 190 228 206 150 111 165 155 144 154 152 134 131 115 106 114 90 357 306 85 99 247 265 313 81 139 172 176 173 183 172 169 173 175 177 179 178
321 312 302 291 291 298 300 302 304 309 305 299 303 310 354 25 44 80 85 71 269 292 349 201 195 220 212 187 202 217 193 155 166 205 204 209 222 211 229 243 234 278 275 136 185 250 255 213 169 123 137 191 216 233 184 134 119 148 139 140 139 103 90 87 96 99 47 70 216 260 90 110 256 286 310 107 151 184 189 188 191 177 173 177 179 180 180 178
327 322 310 293 287 290 292 293 290 285 284 283 287 313 2 45 79 71 80 244 265 283 288 171 203 224 197 171 229 234 198 187 205 206 211 222 221 221 251 256 239 14 320 0 218 246 265 242 181 129 150 187 209 237 167 128 145 141 121 106 72 49 51 58 60 82 69 5 248 237 152 114 195 275 228 190 193 177 165 184 197 178 174 180 183 182 180 178
326 325 314 296 287 285 287 285 231 245 275 278 287 314 19 60 73 86 194 241 287 286 304 196 241 230 176 173 218 237 204 207 217 195 209 234 236 240 284 289 306 44 358 347 343 300 317 333 275 185 178 154 114 305 24 88 113 110 89 84 75 22 11 26 2 38 86 261 262 224 138 102 134 249 237 231 223 169 155 169 182 178 179 182 183 183 181 179
326 323 312 295 282 272 269 267 236 274 274 267 291 327 65 60 34 159 219 300 326 253 332 326 282 323 263 220 204 211 200 209 206 176 188 205 215 231 211 211 191 47 336 293 335 327 324 288 271 244 203 133 94 342 338 37 54 80 97 94 84 36 12 20 317 350 136 240 252 182 127 100 202 240 224 199 188 175 170 168 172 178 181 181 181 181 180 178
326 322 310 286 269 260 253 262 279 263 232 204 165 56 78 91 229 221 229 279 248 243 330 328 288 297 303 251 233 212 196 218 215 196 199 182 194 236 234 215 170 119 221 221 15 354 339 309 309 12 326 176 118 120 264 326 99 129 138 128 114 109 81 225 258 302 197 242 255 162 124 133 266 267 212 164 165 181 174 166 169 176 181 181 180 178 177 178
326 323 307 273 252 249 247 260 256 217 195 168 128 77 88 147 237 232 221 243 262 287 309 315 295 291 306 209 240 226 191 247 227 186 195 175 198 258 268 246 197 145 152 159 109 116 101 319 290 198 265 202 138 164 174 161 143 165 164 138 137 149 143 180 204 184 202 236 288 73 100 180 189 243 202 157 160 170 167 165 165 172 180 178 175 174 174 177
327 324 303 270 242 238 241 232 209 194 179 153 106 78 150 202 243 227 230 243 267 286 287 316 354 344 319 262 247 224 202 236 229 170 192 185 195 223 223 226 203 174 119 117 233 147 122 245 254 238 234 142 149 222 164 112 52 262 157 104 133 183 145 140 179 173 170 155 93 112 203 211 195 253 205 146 148 156 158 155 148 158 172 169 167 172 173 175
328 324 299 267 238 221 211 193 183 182 173 147 102 143 198 213 214 197 228 218 218 295 314 336 19 35 320 306 321 300 224 228 205 169 207 209 215 225 218 226 196 179 161 141 210 193 104 267 270 288 328 180 177 204 141 119 144 290 102 138 248 173 120 113 167 34 78 108 191 217 127 45 45 332 305 143 140 151 153 139 130 147 161 161 164 171 172 175
331 329 303 263 233 190 175 173 167 173 169 137 125 208 213 216 211 220 257 278 312 352 26 335 313 104 299 293 313 334 292 261 232 179 217 236 243 234 230 252 178 174 183 149 173 202 129 277 279 149 146 235 189 106 52 84 127 107 165 214 225 61 85 107 111 20 50 108 246 239 144 159 144 133 285 227 153 166 161 124 128 145 153 157 165 169 173 175
331 329 320 289 231 180 171 168 163 167 159 119 160 220 212 215 221 233 258 296 330 353 26 287 233 180 196 242 270 316 329 293 276 192 199 222 244 236 206 213 155 168 186 156 111 201 121 13 292 273 172 246 32 68 35 345 35 105 175 184 103 91 312 41 105 142 132 147 233 266 153 187 184 168 189 191 176 175 157 126 137 150 153 158 165 168 171 174
329 325 337 37 102 175 175 170 167 163 139 106 203 229 232 240 251 252 263 295 325 315 296 232 199 196 225 206 241 309 332 290 281 257 170 183 234 255 204 186 183 179 176 151 122 179 114 107 286 292 282 324 23 62 138 305 344 22 35 19 53 136 168 156 120 154 142 148 172 127 38 231 230 199 177 182 184 170 154 148 156 161 159 160 163 166 171 175
334 326 342 66 90 156 176 174 169 162 133 157 199 232 257 256 265 260 264 276 267 258 265 224 184 276 252 229 250 282 299 273 273 284 204 189 209 265 275 211 168 167 138 108 99 103 71 92 214 296 331 42 37 187 177 181 346 38 42 17 350 11 100 97 4 88 123 136 159 134 155 261 256 206 175 183 187 173 163 162 164 164 160 160 165 169 173 177
346 334 335 70 69 129 169 170 168 161 141 199 207 239 270 266 271 272 273 272 258 251 255 245 216 204 208 229 273 243 258 329 287 278 241 207 186 220 254 236 202 165 94 68 79 123 95 101 142 302 351 64 248 241 183 169 157 145 126 123 158 112 82 85 357 312 84 115 153 142 156 265 269 181 168 184 187 176 166 160 158 162 161 164 169 172 175 177
353 325 165 55 34 119 161 165 189 149 149 221 237 243 267 269 266 274 277 276 269 254 247 241 228 216 189 198 241 218 175 240 275 267 254 244 210 193 227 228 202 136 105 101 220 163 133 104 94 306 254 216 273 308 175 150 124 113 119 136 141 114 101 116 158 276 11 62 120 114 114 260 270 252 183 185 176 170 165 158 154 160 163 167 171 174 176 177
342 305 249 14 3 28 147 152 325 33 192 247 247 252 260 263 267 274 276 272 270 261 242 222 213 226 208 187 203 179 169 202 243 241 275 290 231 249 334 294 148 109 92 130 249 1 74 77 65 311 302 302 306 327 351 47 76 80 45 60 101 101 117 143 164 165 77 33 77 88 81 261 273 288 176 146 144 152 161 158 155 158 163 167 172 176 177 177
334 313 279 338 2 15 132 157 236 247 279 260 253 259 257 255 257 262 268 262 257 263 262 237 211 209 226 199 194 210 193 161 278 251 262 294 243 20 12 12 125 117 90 160 167 127 84 69 87 57 3 351 340 343 351 358 38 98 299 339 80 98 86 82 87 80 61 356 131 115 171 253 275 323 102 117 124 138 156 158 158 161 163 166 172 177 178 178
340 325 309 335 9 59 90 51 77 235 279 285 282 268 257 262 260 253 256 263 262 261 271 274 228 174 176 207 251 254 206 159 249 275 319 291 274 24 23 12 63 109 128 147 150 137 122 134 119 106 112 151 284 291 277 303 353 87 34 316 99 105 100 103 47 63 75 261 106 123 182 245 288 359 102 123 128 138 156 162 164 166 166 165 169 175 178 178
355 351 328 337 11 46 36 24 24 8 331 334 312 275 249 251 266 263 258 261 266 263 258 262 246 194 177 174 226 258 243 164 205 304 3 332 297 354 20 19 19 43 122 140 142 128 96 76 125 131 157 177 186 224 224 161 132 137 117 273 333 86 104 105 82 91 170 132 55 211 188 177 252 264 129 143 151 151 162 169 171 173 170 167 168 171 175 177
9 24 357 346 354 7 5 10 14 360 316 316 299 266 273 271 289 284 267 259 267 268 257 238 220 203 183 148 205 249 236 157 21 352 338 322 292 319 4 22 22 25 65 125 121 95 84 40 149 143 170 201 195 218 243 157 154 179 170 168 206 98 94 94 112 186 155 100 7 266 191 154 217 234 184 170 169 162 169 174 176 178 175 171 169 169 173 176
20 358 24 12 333 337 357 342 337 328 312 309 268 231 287 293 292 289 285 287 299 333 342 292 14 351 214 176 174 230 215 50 0 339 284 279 320 345 0 351 358 28 41 32 12 78 112 148 256 147 221 269 227 215 240 208 176 181 179 179 170 156 134 125 173 191 137 128 210 223 169 176 227 229 204 191 177 170 178 181 180 179 176 173 171 171 175 178
17 347 352 358 337 270 298 309 311 311 309 314 301 263 298 307 306 295 303 325 344 15 27 19 2 1 349 158 146 157 81 86 346 301 277 293 8 19 18 321 317 18 45 41 0 50 101 217 252 102 21 313 308 313 210 197 255 302 218 193 168 172 177 158 174 186 139 149 201 176 158 209 233 214 211 204 183 173 175 178 176 175 175 175 174 175 178 179
16 2 331 336 331 311 322 328 328 321 324 350 356 318 312 347 357 319 317 41 31 349 15 17 346 3 38 66 83 89 27 166 169 221 252 100 48 45 127 264 289 349 27 63 6 27 72 224 244 75 40 315 306 326 292 180 207 245 258 247 141 145 174 154 150 160 124 132 189 141 138 257 261 228 197 176 166 156 156 167 173 175 178 178 178 179 182 184
23 22 346 323 312 337 346 348 352 352 359 7 354 327 329 352 353 321 302 63 58 18 0 2 339 352 35 49 69 82 291 221 201 254 238 168 237 242 196 206 238 334 359 40 37 40 79 142 314 61 50 288 293 336 333 332 134 223 268 257 154 139 166 186 187 178 154 152 150 122 131 252 258 234 158 159 159 150 154 168 175 179 181 182 183 184 187 190
20 27 19 332 275 355 359 352 4 22 18 343 331 330 345 350 356 1 0 22 18 8 5 10 18 49 38 29 30 4 329 321 304 307 313 283 274 263 227 212 200 173 172 134 74 86 114 113 118 85 83 273 289 341 336 352 22 333 271 214 179 172 175 169 197 198 173 151 143 165 213 227 211 168 151 170 177 165 166 171 174 181 187 189 190 191 193 195
Height
1530 1528 1527 1525 1524 1523 1521 1520 1519 1518 1517 1516 1515 1513 1511 1510 1508 1506 1505 1505 1505 1505 1505 1506 1506 1506 1506 1506 1505 1505 1505 1505 1504 1504 1503 1501 1501 1501 1500 1500 1500 1500 1500 1500 1500 1500 1499 1500 1499 1498 1499 1500 1501 1501 1501 1500 1499 1500 1502 1507 1512 1513 1511 1506 1505 1506 1506 1506 1506 1506 1508 1508 1508 1509 1509 1509 1510 1509 1508 1507 1508 1509 1510 1512 1513 1515 1516 1518
1530 1528 1527 1526 1524 1523 1522 1520 1519 1518 1517 1516 1515 1513 1511 1509 1507 1506 1505 1504 1504 1504 1504 1505 1506 1506 1506 1506 1505 1505 1505 1504 1504 1503 1502 1501 1500 1500 1500 1500 1500 1500 1500 1500 1499 1499 1498 1498 1498 1498 1498 1499 1500 1500 1500 1500 1499 1501 1504 1508 1509 1509 1506 1502 1503 1503 1503 1505 1505 1506 1508 1507 1507 1508 1508 1509 1511 1510 1509 1510 1510 1511 1513 1514 1515 1517 1518 1519
1529 1528 1527 1526 1524 1523 1522 1521 1519 1518 1517 1516 1515 1513 1511 1509 1507 1506 1505 1504 1504 1504 1504 1504 1505 1505 1506 1506 1505 1505 1505 1504 1503 1502 1501 1501 1500 1500 1500 1499 1499 1499 1499 1499 1499 1498 1498 1497 1497 1497 1498 1498 1499 1500 1499 1499 1499 1500 1503 1507 1507 1504 1503 1502 1503 1503 1502 1503 1505 1508 1508 1507 1507 1507 1507 1509 1512 1511 1510 1511 1512 1512 1514 1516 1517 1518 1519 1520
1529 1528 1527 1526 1525 1523 1522 1521 1519 1518 1517 1516 1515 1513 1511 1509 1508 1506 1505 1504 1504 1504 1504 1504 1505 1505 1505 1505 1505 1505 1505 1504 1502 1501 1501 1500 1500 1500 1499 1498 1498 1498 1498 1498 1498 1498 1497 1496 1496 1497 1497 1498 1498 1498 1498 1499 1500 1500 1502 1505 1503 1502 1504 1503 1503 1503 1502 1503 1505 1507 1507 1507 1507 1507 1507 1509 1513 1514 1512 1512 1512 1513 1514 1516 1518 1519 1520 1521
1529 1528 1527 1526 1525 1523 1522 1521 1519 1518 1517 1516 1515 1513 1511 1510 1508 1507 1506 1505 1504 1504 1504 1504 1504 1504 1505 1505 1505 1505 1506 1506 1502 1500 1500 1500 1500 1499 1498 1498 1498 1498 1498 1498 1498 1498 1497 1496 1495 1496 1497 1498 1498 1499 1499 1499 1499 1501 1501 1501 1501 1502 1504 1503 1502 1503 1503 1504 1505 1506 1507 1508 1507 1508 1509 1509 1512 1514 1513 1513 1514 1514 1515 1517 1518 1520 1521 1522
1528 1527 1527 1526 1524 1523 1522 1521 1520 1518 1517 1515 1514 1513 1512 1510 1509 1508 1506 1506 1505 1505 1504 1504 1504 1504 1504 1505 1505 1505 1506 1506 1501 1499 1500 1499 1499 1499 1498 1498 1497 1497 1498 1498 1498 1497 1497 1496 1496 1496 1497 1498 1499 1499 1500 1499 1499 1501 1501 1499 1500 1501 1502 1502 1503 1503 1504 1504 1505 1506 1507 1507 1508 1509 1510 1511 1512 1513 1513 1514 1515 1516 1518 1519 1520 1521 1521 1522
1527 1527 1526 1525 1524 1523 1522 1521 1519 1518 1517 1515 1514 1513 1512 1511 1509 1508 1507 1506 1506 1505 1505 1504 1504 1504 1504 1504 1505 1504 1504 1503 1499 1500 1500 1499 1499 1498 1498 1498 1497 1497 1498 1498 1498 1497 1497 1496 1496 1496 1497 1499 1500 1499 1499 1499 1499 1501 1501 1500 1500 1501 1501 1502 1503 1504 1504 1504 1505 1506 1507 1507 1508 1510 1511 1512 1512 1513 1515 1516 1517 1518 1520 1520 1521 1522 1522 1523
1527 1526 1525 1524 1524 1523 1522 1521 1519 1518 1516 1515 1514 1513 1512 1511 1510 1509 1508 1507 1506 1505 1505 1505 1504 1504 1504 1504 1504 1504 1503 1499 1498 1499 1499 1498 1498 1497 1498 1497 1497 1497 1497 1498 1498 1497 1497 1497 1497 1497 1498 1500 1500 1500 1499 1499 1500 1501 1501 1500 1500 1501 1501 1501 1503 1504 1505 1505 1506 1507 1508 1508 1509 1510 1512 1513 1514 1515 1516 1518 1519 1520 1521 1522 1522 1523 1523 1524
1526 1525 1525 1524 1523 1522 1521 1520 1519 1518 1516 1515 1514 1513 1512 1511 1510 1509 1508 1507 1506 1506 1505 1505 1505 1504 1504 1503 1503 1503 1500 1497 1497 1497 1497 1498 1498 1497 1497 1496 1496 1497 1497 1497 1498 1497 1497 1496 1497 1497 1498 1499 1499 1499 1499 1500 1502 1500 1500 1500 1500 1501 1502 1502 1503 1504 1505 1506 1507 1508 1509 1510 1510 1511 1514 1516 1516 1517 1518 1519 1520 1521 1522 1522 1523 1524 1524 1524
1526 1525 1524 1523 1522 1521 1520 1520 1519 1518 1516 1515 1514 1513 1512 1510 1510 1509 1508 1507 1506 1505 1505 1505 1504 1504 1503 1503 1503 1503 1499 1497 1497 1497 1496 1497 1497 1497 1496 1495 1496 1496 1496 1496 1497 1497 1496 1496 1496 1496 1497 1497 1498 1499 1499 1500 1501 1499 1499 1500 1501 1502 1502 1503 1504 1504 1506 1507 1508 1509 1511 1512 1512 1513 1517 1517 1517 1518 1519 1520 1521 1521 1522 1523 1523 1524 1524 1525
1526 1525 1523 1522 1521 1521 1519 1519 1518 1518 1516 1514 1513 1513 1511 1510 1509 1508 1507 1507 1506 1505 1505 1504 1504 1503 1503 1502 1502 1501 1498 1497 1497 1496 1497 1497 1496 1495 1494 1494 1495 1496 1496 1495 1496 1496 1496 1496 1496 1496 1497 1498 1498 1499 1499 1498 1499 1498 1498 1500 1502 1503 1503 1504 1505 1505 1507 1508 1509 1509 1511 1513 1513 1515 1516 1517 1518 1519 1519 1520 1521 1521 1522 1522 1523 1523 1524 1524
1526 1525 1523 1522 1520 1520 1519 1518 1517 1517 1516 1514 1513 1512 1511 1510 1509 1508 1507 1506 1506 1505 1504 1504 1503 1503 1502 1501 1500 1498 1497 1497 1497 1497 1497 1496 1496 1494 1493 1493 1494 1495 1495 1495 1495 1495 1496 1496 1496 1496 1497 1498 1499 1500 1500 1498 1499 1499 1499 1502 1504 1504 1505 1505 1505 1507 1508 1508 1509 1510 1517 1519 1516 1516 1516 1516 1518 1519 1520 1520 1521 1521 1522 1522 1523 1523 1523 1523
1526 1525 1523 1521 1520 1519 1518 1517 1516 1516 1515 1514 1513 1512 1510 1509 1508 1507 1507 1506 1505 1504 1503 1503 1502 1502 1502 1500 1497 1497 1497 1497 1497 1497 1497 1496 1495 1494 1492 1493 1494 1494 1494 1494 1494 1494 1495 1496 1496 1496 1497 1498 1499 1500 1500 1499 1500 1501 1502 1505 1506 1508 1509 1506 1505 1508 1508 1509 1508 1510 1522 1525 1516 1515 1516 1516 1518 1518 1520 1520 1520 1521 1521 1522 1522 1522 1522 1522
1526 1525 1523 1521 1519 1518 1517 1516 1515 1514 1514 1514 1513 1511 1510 1509 1507 1506 1506 1506 1504 1504 1503 1502 1502 1501 1501 1498 1495 1496 1496 1496 1497 1497 1496 1496 1495 1494 1493 1492 1493 1494 1493 1494 1494 1494 1495 1495 1496 1496 1497 1498 1498 1499 1500 1501 1503 1504 1507 1509 1510 1514 1512 1504 1504 1507 1508 1509 1507 1509 1522 1525 1516 1515 1515 1516 1517 1518 1519 1518 1519 1520 1520 1521 1521 1521 1522 1521
1526 1524 1522 1521 1519 1517 1516 1515 1514 1513 1513 1512 1512 1511 1509 1508 1506 1505 1505 1505 1504 1503 1502 1501 1501 1501 1499 1496 1494 1495 1495 1496 1495 1494 1495 1495 1494 1494 1493 1492 1493 1493 1494 1495 1495 1494 1495 1495 1496 1496 1497 1498 1498 1501 1503 1505 1505 1506 1513 1515 1514 1516 1510 1503 1503 1505 1506 1507 1506 1509 1521 1524 1516 1514 1514 1515 1517 1517 1518 1517 1518 1518 1518 1519 1520 1520 1521 1520
1526 1524 1522 1520 1518 1517 1515 1514 1512 1512 1511 1511 1511 1510 1508 1507 1505 1504 1504 1503 1503 1502 1502 1501 1500 1501 1499 1496 1494 1494 1494 1493 1493 1493 1494 1494 1493 1493 1493 1492 1492 1493 1493 1495 1495 1495 1496 1496 1496 1496 1497 1498 1500 1502 1505 1509 1511 1510 1514 1515 1513 1514 1511 1507 1504 1502 1502 1505 1506 1508 1517 1522 1515 1513 1513 1514 1516 1516 1517 1517 1516 1517 1517 1517 1518 1519 1519 1520
1525 1523 1521 1520 1518 1516 1514 1513 1511 1510 1510 1509 1509 1509 1507 1506 1504 1504 1503 1502 1502 1501 1501 1500 1499 1499 1497 1494 1494 1492 1491 1491 1491 1492 1492 1492 1492 1491 1492 1492 1492 1493 1493 1495 1496 1496 1496 1496 1497 1497 1497 1499 1500 1502 1509 1515 1514 1513 1514 1511 1508 1509 1509 1508 1503 1500 1500 1503 1507 1507 1512 1515 1511 1510 1512 1513 1514 1515 1515 1516 1515 1515 1515 1516 1517 1518 1518 1519
1524 1522 1521 1519 1517 1515 1513 1512 1510 1509 1508 1508 1508 1507 1506 1505 1504 1503 1502 1501 1501 1501 1501 1499 1499 1501 1497 1492 1492 1491 1490 1490 1490 1490 1490 1490 1490 1491 1491 1491 1491 1492 1493 1495 1496 1496 1498 1497 1497 1498 1499 1501 1500 1502 1510 1511 1506 1507 1510 1508 1507 1506 1505 1506 1503 1499 1498 1502 1508 1510 1511 1511 1508 1508 1510 1511 1513 1513 1513 1514 1514 1513 1514 1516 1516 1517 1518 1519
1523 1521 1520 1518 1516 1514 1512 1511 1509 1507 1506 1507 1507 1506 1505 1504 1503 1502 1501 1501 1500 1500 1500 1498 1498 1500 1496 1490 1490 1490 1489 1490 1489 1489 1489 1489 1489 1490 1490 1490 1491 1491 1492 1495 1495 1495 1497 1498 1499 1500 1500 1500 1498 1498 1502 1500 1496 1499 1502 1504 1506 1507 1504 1502 1500 1496 1497 1503 1508 1509 1509 1508 1507 1508 1509 1510 1511 1512 1513 1513 1513 1513 1514 1515 1516 1516 1517 1518
1522 1520 1519 1517 1515 1513 1511 1510 1508 1506 1505 1505 1505 1505 1504 1504 1503 1502 1501 1500 1499 1498 1498 1496 1495 1494 1491 1488 1489 1490 1488 1489 1488 1486 1487 1488 1488 1488 1488 1489 1489 1489 1490 1492 1495 1494 1495 1501 1503 1499 1494 1493 1492 1492 1493 1493 1495 1497 1500 1502 1504 1506 1505 1499 1497 1495 1494 1502 1508 1506 1507 1506 1505 1505 1506 1508 1510 1510 1511 1512 1512 1513 1514 1515 1515 1516 1516 1518
1521 1520 1517 1516 1513 1511 1510 1509 1507 1505 1504 1504 1504 1504 1504 1504 1504 1504 1501 1498 1496 1496 1495 1493 1493 1491 1488 1487 1487 1488 1489 1489 1487 1485 1486 1487 1487 1487 1488 1488 1488 1490 1488 1489 1493 1493 1496 1503 1501 1492 1486 1485 1486 1488 1490 1492 1495 1497 1500 1503 1504 1506 1503 1496 1495 1495 1493 1501 1508 1506 1506 1507 1503 1503 1505 1506 1508 1509 1508 1509 1511 1511 1512 1513 1514 1515 1516 1518
1521 1518 1516 1514 1512 1510 1509 1507 1506 1504 1504 1503 1503 1503 1503 1504 1505 1504 1503 1498 1493 1493 1493 1491 1491 1488 1486 1485 1484 1486 1489 1488 1486 1485 1485 1487 1487 1487 1486 1486 1490 1490 1486 1487 1493 1496 1501 1501 1492 1485 1481 1481 1485 1486 1488 1492 1494 1498 1500 1503 1505 1504 1501 1497 1494 1494 1494 1500 1507 1507 1507 1507 1502 1501 1504 1504 1505 1505 1505 1506 1508 1509 1510 1512 1513 1515 1516 1517
1520 1517 1515 1513 1510 1509 1507 1506 1504 1503 1503 1502 1502 1503 1503 1503 1502 1502 1502 1499 1491 1489 1490 1488 1488 1485 1483 1483 1483 1484 1486 1485 1484 1483 1483 1485 1484 1484 1485 1485 1488 1489 1487 1489 1493 1499 1504 1494 1481 1480 1480 1482 1486 1486 1487 1491 1493 1496 1500 1502 1503 1500 1501 1503 1497 1494 1495 1497 1503 1506 1508 1507 1503 1503 1503 1502 1502 1502 1504 1505 1506 1507 1508 1510 1511 1513 1514 1515
1518 1516 1514 1511 1509 1507 1505 1505 1503 1502 1502 1501 1502 1502 1502 1501 1499 1499 1498 1497 1492 1486 1484 1485 1485 1482 1480 1480 1481 1482 1482 1481 1481 1480 1480 1482 1481 1482 1483 1482 1485 1488 1488 1486 1487 1494 1494 1480 1472 1477 1480 1480 1485 1487 1487 1491 1494 1496 1497 1498 1499 1497 1498 1499 1496 1494 1495 1497 1499 1505 1514 1513 1506 1506 1505 1502 1502 1502 1504 1506 1506 1507 1508 1509 1511 1512 1513 1514
1516 1515 1512 1510 1508 1505 1504 1503 1501 1501 1500 1501 1502 1500 1501 1499 1497 1498 1497 1498 1496 1486 1481 1482 1480 1479 1476 1477 1479 1478 1478 1478 1478 1477 1477 1478 1479 1480 1479 1479 1483 1487 1486 1481 1483 1490 1484 1472 1470 1476 1478 1478 1482 1486 1486 1489 1493 1495 1494 1492 1494 1495 1494 1495 1496 1497 1503 1508 1501 1503 1522 1523 1508 1506 1506 1502 1503 1504 1504 1505 1506 1508 1508 1509 1511 1511 1513 1514
1514 1513 1511 1509 1507 1503 1503 1501 1500 1501 1500 1501 1501 1499 1500 1497 1496 1498 1497 1504 1503 1487 1481 1481 1478 1477 1475 1475 1476 1476 1480 1478 1474 1475 1475 1475 1476 1477 1478 1479 1480 1481 1479 1477 1480 1482 1476 1469 1470 1475 1478 1479 1483 1485 1483 1484 1493 1496 1490 1487 1490 1491 1491 1493 1495 1499 1508 1511 1502 1499 1516 1524 1513 1507 1505 1503 1504 1506 1505 1505 1506 1507 1508 1509 1510 1511 1512 1513
1512 1511 1509 1508 1506 1504 1502 1500 1500 1501 1500 1501 1499 1499 1499 1495 1497 1497 1498 1516 1511 1486 1479 1480 1477 1477 1473 1473 1473 1476 1483 1478 1473 1474 1473 1474 1475 1475 1479 1480 1479 1478 1472 1475 1482 1478 1471 1469 1472 1475 1478 1481 1485 1485 1479 1480 1489 1491 1483 1482 1488 1489 1489 1491 1493 1498 1502 1502 1502 1499 1504 1517 1519 1510 1504 1504 1506 1507 1507 1508 1507 1507 1508 1509 1509 1510 1511 1512
1510 1508 1507 1506 1505 1505 1502 1500 1501 1500 1500 1500 1498 1499 1497 1495 1498 1495 1506 1528 1510 1480 1477 1477 1474 1475 1472 1472 1472 1474 1477 1474 1476 1476 1471 1473 1475 1474 1478 1477 1477 1477 1471 1478 1487 1478 1469 1471 1472 1475 1480 1484 1484 1480 1474 1476 1485 1485 1479 1481 1484 1484 1487 1489 1492 1498 1499 1502 1511 1506 1500 1516 1523 1509 1503 1506 1507 1510 1509 1508 1508 1507 1508 1509 1508 1509 1510 1511
1508 1506 1505 1503 1504 1504 1501 1501 1500 1499 1500 1498 1498 1499 1495 1496 1496 1496 1515 1526 1497 1476 1477 1475 1473 1474 1471 1472 1473 1471 1472 1473 1476 1475 1471 1473 1473 1472 1475 1474 1473 1475 1472 1476 1483 1476 1469 1469 1468 1470 1478 1481 1476 1471 1469 1473 1480 1478 1476 1479 1481 1483 1487 1490 1495 1498 1501 1509 1516 1508 1502 1516 1524 1510 1504 1508 1509 1509 1508 1506 1506 1505 1506 1507 1507 1508 1509 1511
1506 1505 1503 1501 1501 1501 1499 1499 1499 1499 1498 1497 1498 1497 1495 1497 1497 1510 1530 1520 1491 1480 1477 1474 1474 1473 1471 1474 1474 1472 1472 1473 1472 1472 1472 1472 1472 1471 1472 1472 1471 1474 1475 1474 1475 1472 1466 1464 1464 1465 1470 1471 1468 1467 1466 1469 1473 1473 1476 1482 1485 1489 1490 1493 1498 1498 1508 1518 1513 1505 1502 1510 1522 1515 1504 1505 1503 1502 1504 1506 1505 1505 1506 1506 1506 1507 1508 1510
1504 1503 1501 1499 1499 1498 1497 1498 1497 1498 1497 1496 1497 1495 1496 1498 1503 1523 1530 1505 1488 1484 1476 1475 1475 1470 1473 1475 1475 1473 1472 1472 1471 1472 1474 1473 1473 1473 1473 1475 1475 1477 1481 1478 1475 1472 1468 1467 1466 1463 1463 1464 1466 1467 1467 1469 1471 1473 1480 1486 1493 1499 1498 1501 1505 1504 1517 1524 1508 1501 1501 1506 1519 1513 1500 1499 1497 1495 1499 1501 1503 1504 1504 1504 1505 1506 1507 1509
1502 1500 1499 1497 1496 1495 1495 1496 1496 1497 1496 1496 1497 1495 1497 1505 1513 1521 1513 1495 1492 1487 1477 1479 1476 1471 1474 1474 1474 1474 1472 1474 1471 1471 1474 1474 1476 1475 1475 1479 1478 1485 1491 1486 1481 1478 1473 1471 1467 1463 1462 1463 1468 1473 1473 1473 1475 1479 1485 1490 1501 1514 1515 1517 1519 1517 1522 1518 1503 1499 1501 1506 1512 1503 1494 1495 1494 1494 1495 1495 1498 1500 1501 1502 1504 1506 1508 1509
1500 1497 1495 1495 1493 1492 1493 1494 1495 1496 1495 1495 1497 1495 1500 1515 1518 1510 1501 1496 1492 1482 1476 1479 1475 1473 1475 1476 1475 1472 1472 1474 1471 1471 1473 1473 1478 1476 1474 1474 1474 1483 1490 1486 1485 1483 1480 1476 1468 1468 1467 1463 1467 1476 1479 1479 1479 1483 1486 1490 1501 1515 1525 1529 1529 1527 1523 1513 1501 1498 1501 1509 1509 1497 1492 1492 1491 1492 1492 1492 1495 1496 1498 1501 1502 1505 1507 1509
1497 1494 1491 1490 1489 1489 1491 1493 1494 1494 1494 1494 1496 1498 1506 1518 1513 1501 1498 1494 1486 1479 1477 1478 1475 1474 1475 1476 1475 1470 1473 1475 1469 1471 1474 1474 1480 1478 1475 1474 1471 1476 1481 1484 1486 1485 1489 1489 1475 1471 1471 1465 1465 1470 1473 1474 1476 1479 1479 1482 1490 1498 1510 1521 1522 1520 1519 1512 1505 1502 1505 1511 1509 1498 1490 1487 1488 1491 1490 1491 1494 1495 1496 1499 1502 1505 1507 1509
1494 1491 1488 1486 1487 1488 1489 1492 1492 1492 1493 1492 1495 1502 1510 1513 1506 1499 1496 1489 1483 1481 1478 1476 1477 1478 1477 1475 1472 1468 1471 1474 1470 1472 1475 1476 1479 1477 1474 1472 1470 1473 1478 1485 1486 1483 1490 1490 1473 1465 1465 1462 1465 1464 1462 1469 1477 1478 1475 1479 1485 1483 1489 1504 1512 1510 1510 1513 1512 1508 1507 1505 1499 1494 1489 1487 1489 1490 1490 1492 1494 1495 1497 1499 1502 1505 1506 1508
1491 1488 1485 1484 1485 1486 1488 1490 1490 1491 1491 1491 1496 1504 1505 1502 1498 1494 1489 1483 1483 1483 1480 1480 1479 1482 1482 1477 1474 1471 1469 1470 1470 1473 1475 1474 1474 1473 1470 1466 1464 1468 1472 1479 1483 1482 1488 1485 1469 1465 1464 1460 1462 1461 1458 1467 1476 1478 1478 1480 1480 1475 1478 1496 1511 1509 1508 1516 1516 1510 1509 1505 1502 1500 1494 1491 1492 1491 1492 1493 1493 1495 1497 1499 1502 1503 1506 1508
1488 1484 1483 1483 1484 1485 1487 1488 1488 1490 1490 1491 1497 1501 1498 1493 1489 1487 1483 1480 1482 1482 1484 1487 1483 1483 1485 1481 1478 1475 1472 1471 1471 1472 1474 1474 1472 1469 1466 1463 1459 1461 1464 1468 1475 1478 1483 1483 1470 1466 1469 1462 1457 1459 1459 1460 1466 1475 1480 1477 1475 1477 1479 1488 1505 1514 1517 1523 1519 1510 1511 1512 1511 1509 1501 1496 1496 1493 1493 1493 1494 1496 1497 1498 1501 1502 1505 1507
1487 1483 1482 1482 1483 1484 1485 1486 1487 1489 1490 1492 1496 1496 1493 1489 1485 1483 1481 1480 1482 1483 1486 1490 1484 1481 1484 1485 1481 1476 1475 1476 1473 1471 1473 1473 1471 1465 1462 1462 1458 1457 1458 1461 1469 1472 1476 1484 1476 1466 1468 1464 1457 1462 1468 1463 1462 1467 1472 1470 1474 1485 1488 1488 1500 1511 1517 1525 1523 1512 1512 1514 1510 1504 1500 1499 1496 1493 1494 1494 1495 1497 1497 1498 1501 1502 1505 1506
1487 1484 1482 1481 1481 1483 1484 1486 1487 1488 1490 1494 1498 1495 1489 1486 1483 1481 1481 1482 1484 1485 1486 1486 1482 1480 1481 1482 1481 1476 1475 1478 1475 1473 1473 1473 1471 1462 1458 1460 1458 1457 1456 1457 1465 1469 1472 1484 1484 1470 1466 1466 1463 1468 1476 1474 1467 1465 1467 1469 1473 1480 1485 1487 1492 1498 1505 1519 1525 1519 1515 1512 1501 1494 1494 1495 1492 1491 1493 1495 1495 1496 1496 1497 1500 1502 1504 1505
1489 1485 1483 1482 1481 1482 1484 1486 1487 1488 1491 1494 1496 1492 1486 1484 1481 1479 1480 1483 1483 1483 1484 1482 1480 1480 1479 1477 1478 1476 1475 1476 1475 1474 1471 1469 1469 1463 1457 1457 1457 1457 1456 1456 1463 1467 1471 1482 1486 1476 1468 1471 1473 1473 1475 1475 1473 1472 1474 1478 1477 1477 1481 1485 1489 1491 1495 1508 1520 1521 1520 1509 1492 1487 1489 1489 1488 1488 1490 1492 1494 1495 1495 1497 1499 1500 1502 1504
1490 1488 1485 1482 1482 1483 1484 1486 1487 1488 1490 1491 1492 1489 1486 1484 1480 1478 1479 1481 1481 1479 1479 1478 1478 1477 1476 1476 1477 1475 1474 1475 1473 1472 1470 1467 1467 1465 1458 1454 1455 1456 1457 1460 1463 1466 1471 1478 1483 1481 1476 1476 1476 1469 1467 1468 1470 1473 1476 1479 1480 1479 1482 1490 1497 1494 1491 1500 1509 1514 1519 1507 1486 1482 1485 1485 1485 1486 1487 1490 1493 1495 1495 1497 1499 1500 1501 1503
1491 1489 1485 1483 1484 1484 1484 1486 1487 1487 1489 1490 1489 1486 1485 1483 1479 1477 1477 1478 1478 1476 1475 1475 1474 1473 1473 1474 1474 1474 1474 1474 1473 1472 1469 1466 1465 1463 1456 1453 1453 1453 1456 1464 1465 1462 1466 1474 1480 1482 1479 1478 1474 1467 1466 1466 1466 1470 1474 1477 1480 1480 1482 1492 1501 1497 1494 1502 1506 1506 1513 1504 1484 1481 1483 1482 1484 1485 1487 1490 1492 1495 1496 1497 1498 1499 1501 1502
1492 1489 1484 1483 1484 1483 1485 1488 1488 1488 1488 1487 1486 1484 1483 1481 1479 1477 1476 1477 1476 1474 1473 1472 1470 1469 1469 1469 1471 1473 1473 1473 1472 1470 1467 1465 1462 1457 1453 1452 1452 1453 1456 1464 1466 1462 1465 1475 1482 1483 1481 1477 1472 1467 1466 1465 1466 1473 1477 1476 1477 1479 1480 1485 1492 1492 1494 1503 1504 1507 1515 1504 1484 1482 1483 1480 1482 1486 1489 1490 1491 1494 1496 1496 1498 1498 1500 1501
1492 1488 1484 1484 1485 1483 1486 1490 1490 1489 1488 1486 1484 1482 1481 1479 1477 1477 1476 1475 1474 1472 1471 1469 1466 1466 1465 1465 1467 1469 1471 1473 1472 1468 1466 1465 1460 1453 1452 1451 1452 1453 1456 1461 1463 1462 1470 1480 1484 1489 1494 1491 1486 1482 1477 1472 1472 1477 1480 1479 1478 1479 1480 1483 1487 1488 1495 1503 1502 1507 1515 1503 1485 1483 1483 1481 1484 1487 1489 1490 1491 1493 1495 1496 1497 1497 1499 1501
1492 1489 1486 1485 1485 1485 1487 1490 1490 1489 1488 1486 1485 1482 1481 1478 1475 1475 1474 1472 1470 1470 1470 1468 1464 1462 1463 1465 1467 1467 1468 1471 1472 1467 1465 1464 1459 1452 1453 1453 1452 1452 1453 1456 1457 1459 1469 1478 1480 1490 1503 1508 1505 1499 1489 1482 1479 1480 1480 1479 1479 1479 1479 1483 1489 1492 1498 1504 1502 1502 1505 1497 1486 1485 1485 1484 1486 1488 1490 1491 1491 1492 1493 1494 1496 1497 1499 1500
1495 1494 1491 1487 1485 1485 1488 1489 1489 1490 1489 1490 1488 1483 1480 1478 1474 1472 1471 1469 1467 1467 1467 1466 1463 1462 1462 1465 1469 1469 1467 1468 1470 1468 1467 1467 1462 1456 1454 1454 1454 1453 1452 1454 1454 1458 1468 1475 1476 1482 1491 1494 1494 1488 1481 1480 1481 1482 1482 1480 1480 1481 1480 1483 1492 1496 1497 1500 1500 1497 1495 1493 1488 1487 1488 1487 1487 1488 1490 1491 1491 1492 1492 1493 1495 1496 1498 1499
1499 1500 1499 1496 1492 1489 1489 1488 1489 1491 1490 1491 1490 1483 1479 1478 1475 1471 1469 1467 1465 1464 1462 1460 1461 1462 1463 1465 1469 1470 1467 1467 1468 1467 1468 1469 1464 1459 1457 1455 1456 1457 1455 1454 1455 1459 1469 1475 1476 1478 1479 1480 1481 1479 1476 1478 1479 1479 1480 1480 1481 1482 1482 1483 1489 1493 1493 1499 1502 1496 1492 1493 1490 1487 1487 1487 1486 1487 1488 1488 1489 1490 1491 1492 1494 1496 1497 1499
1501 1502 1502 1503 1501 1498 1496 1493 1492 1491 1489 1488 1487 1482 1479 1478 1477 1474 1470 1465 1464 1464 1462 1461 1461 1461 1460 1461 1466 1469 1467 1468 1470 1470 1469 1467 1465 1463 1461 1459 1459 1458 1457 1458 1457 1460 1469 1475 1475 1475 1477 1476 1476 1477 1476 1476 1477 1476 1476 1477 1479 1481 1482 1482 1485 1488 1489 1493 1497 1492 1491 1491 1487 1484 1485 1483 1483 1484 1484 1485 1486 1487 1489 1491 1493 1495 1496 1498
1504 1504 1503 1502 1502 1501 1500 1496 1493 1492 1489 1487 1484 1481 1480 1479 1478 1476 1471 1466 1467 1467 1466 1467 1466 1463 1459 1458 1463 1469 1469 1470 1473 1473 1469 1466 1466 1467 1467 1465 1462 1458 1458 1460 1460 1462 1469 1475 1475 1474 1475 1475 1474 1475 1475 1475 1477 1477 1475 1476 1477 1478 1479 1479 1482 1485 1484 1486 1488 1487 1488 1487 1483 1481 1481 1480 1480 1481 1482 1484 1485 1487 1489 1490 1492 1493 1494 1496
1507 1507 1505 1503 1502 1500 1498 1496 1493 1491 1489 1487 1487 1484 1481 1480 1480 1477 1471 1470 1473 1471 1468 1469 1468 1465 1464 1462 1464 1470 1471 1470 1472 1472 1468 1467 1468 1468 1470 1469 1465 1462 1461 1462 1464 1464 1468 1476 1476 1473 1476 1478 1473 1472 1474 1477 1479 1477 1475 1477 1478 1479 1480 1481 1482 1484 1484 1486 1487 1486 1487 1485 1480 1478 1478 1478 1480 1481 1482 1484 1485 1486 1488 1489 1490 1491 1492 1494
1509 1509 1507 1505 1504 1500 1498 1496 1494 1493 1492 1492 1492 1488 1484 1483 1481 1477 1472 1471 1474 1473 1470 1470 1468 1466 1466 1465 1466 1471 1471 1470 1470 1468 1465 1466 1466 1466 1468 1468 1466 1467 1466 1465 1466 1466 1469 1476 1476 1475 1483 1484 1475 1474 1476 1476 1478 1479 1477 1477 1478 1478 1480 1480 1480 1480 1481 1484 1487 1487 1488 1485 1479 1477 1478 1479 1479 1480 1481 1482 1483 1485 1486 1487 1488 1489 1490 1492
1509 1508 1507 1507 1505 1502 1500 1498 1496 1496 1498 1498 1495 1491 1488 1486 1481 1477 1475 1473 1472 1472 1471 1470 1468 1468 1468 1467 1468 1469 1469 1468 1467 1465 1463 1464 1463 1463 1464 1465 1466 1468 1468 1467 1467 1467 1470 1474 1475 1480 1488 1485 1477 1478 1477 1476 1483 1486 1477 1472 1473 1474 1476 1477 1477 1476 1476 1479 1483 1485 1484 1479 1476 1478 1479 1480 1480 1479 1479 1480 1481 1483 1484 1485 1487 1487 1488 1489